Clarksville, TN

10:52 AM CDT on April 20, 2018 (GMT -0500)
Outlaw

Weather History for KCKV - May, 2013

Change the Weather History Date:

Friday, May 10, 2013

  Actual Average Record
Temperature  
Mean Temperature 66 °F 65 °F  
Max Temperature 70 °F 76 °F 89 °F (1963)
Min Temperature 62 °F 54 °F 35 °F (1966)
Degree Days  
Heating Degree Days 0    
Month to date heating degree days 43  
Since 1 July heating degree days 3917  
Cooling Degree Days 1    
Month to date cooling degree days 12  
Year to date cooling degree days  
Growing Degree Days 16 (Base 50)    
Moisture  
Dew Point 63 °F    
Average Humidity 87    
Maximum Humidity 100    
Minimum Humidity 73    
Precipitation  
Precipitation 0.62 in 0.20 in 1.66 in (1952)
Month to date precipitation 1.66 2.28  
Year to date precipitation 18.30  
Sea Level Pressure  
Sea Level Pressure 29.92 in    
Wind  
Wind Speed 6 mph (SSW)    
Max Wind Speed 17 mph    
Max Gust Speed 22 mph    
Visibility 6 miles    
Events Rain , Thunderstorm    
T = Trace of Precipitation, MM = Missing Value Source: NWS Daily Summary

Daily Weather History Graph

Daily Weather History Graph

Search for Another Location

Airport or City:

Astronomy

May. 10, 2013 Rise Set
Actual Time 5:46 AM CDT 7:46 PM CDT
Civil Twilight 5:18 AM CDT 8:14 PM CDT
Nautical Twilight 4:43 AM CDT 8:49 PM CDT
Astronomical Twilight 4:06 AM CDT 9:26 PM CDT
Moon 6:10 AM CDT (5/10) 8:34 PM CDT (5/10)
Length of Visible Light 14h 56m
Length of Day
13h 59m
New Moon, 0% of the Moon is Illuminated
May 10
New Moon
May 17
First Quarter
May 24
Full
May 31
Last Quarter
Jun 8
New

Hourly Weather History & Observations

Time (CDT) Temp. Dew Point Humidity Pressure Visibility Wind Dir Wind Speed Gust Speed Precip Events Conditions
12:52 AM 70.0 °F 60.1 °F 71% 29.97 in 10.0 mi SSW 6.9 mph - N/A   Overcast
1:52 AM 68.0 °F 60.1 °F 76% 29.94 in 10.0 mi South 3.5 mph - N/A   Partly Cloudy
3:52 AM 68.0 °F 60.1 °F 76% 29.90 in 10.0 mi Calm Calm - N/A   Mostly Cloudy
4:52 AM 66.0 °F 60.1 °F 81% 29.89 in 10.0 mi SSE 3.5 mph - N/A   Overcast
5:14 AM 66.2 °F 60.8 °F 83% 29.90 in 10.0 mi Calm Calm - 0.00 in Thunderstorm Overcast
5:34 AM 66.2 °F 62.6 °F 88% 29.92 in 4.0 mi WSW 12.7 mph 21.9 mph 0.04 in Rain , Thunderstorm Rain
5:52 AM 64.9 °F 63.0 °F 93% 29.93 in 7.0 mi SW 8.1 mph 19.6 mph 0.06 in Rain , Thunderstorm Light Rain
6:07 AM 64.4 °F 62.6 °F 94% 29.94 in 5.0 mi WSW 3.5 mph - 0.01 in Rain Light Rain
6:16 AM 64.4 °F 62.6 °F 94% 29.93 in 4.0 mi WSW 3.5 mph - 0.02 in Rain Light Rain
6:29 AM 64.4 °F 62.6 °F 94% 29.92 in 2.5 mi WNW 4.6 mph - 0.04 in Rain Light Rain
6:37 AM 64.4 °F 62.6 °F 94% 29.92 in 4.0 mi WNW 3.5 mph - 0.05 in Rain Light Rain
6:52 AM 64.0 °F 63.0 °F 96% 29.92 in 4.0 mi South 3.5 mph - 0.05 in Rain Light Rain
7:20 AM 64.4 °F 62.6 °F 94% 29.93 in 7.0 mi South 3.5 mph - 0.01 in Rain Light Rain
7:52 AM 64.0 °F 62.1 °F 93% 29.94 in 10.0 mi SSW 8.1 mph - 0.01 in Rain Light Rain
8:24 AM 64.4 °F 62.6 °F 94% 29.95 in 4.0 mi South 5.8 mph - 0.02 in Rain Light Rain
8:40 AM 64.4 °F 62.6 °F 94% 29.96 in 1.5 mi South 5.8 mph - 0.08 in Rain Heavy Rain
8:52 AM 64.0 °F 62.1 °F 93% 29.95 in 1.2 mi South 6.9 mph - 0.14 in Rain Heavy Rain
8:56 AM 64.4 °F 62.6 °F 94% 29.95 in 1.8 mi South 4.6 mph - 0.01 in Rain Rain
9:03 AM 64.4 °F 62.6 °F 94% 29.95 in 2.5 mi South 4.6 mph - 0.02 in Rain Rain
9:12 AM 64.4 °F 62.6 °F 94% 29.95 in 3.0 mi South 3.5 mph - 0.04 in Rain Rain
9:25 AM 64.4 °F 62.6 °F 94% 29.94 in 2.5 mi SSE 5.8 mph - 0.07 in Rain Rain
9:31 AM 64.4 °F 62.6 °F 94% 29.94 in 3.0 mi SSE 4.6 mph - 0.08 in Rain Rain
9:37 AM 64.4 °F 62.6 °F 94% 29.94 in 2.5 mi SSE 4.6 mph - 0.09 in Rain Rain
9:52 AM 64.0 °F 63.0 °F 96% 29.93 in 3.0 mi SSE 5.8 mph - 0.13 in Rain Rain
10:30 AM 64.4 °F 62.6 °F 94% 29.92 in 2.5 mi South 9.2 mph 18.4 mph 0.06 in Rain Rain
10:52 AM 64.0 °F 62.1 °F 93% 29.92 in 3.0 mi South 12.7 mph 18.4 mph 0.11 in Rain Rain
11:07 AM 64.4 °F 62.6 °F 94% 29.93 in 4.0 mi South 11.5 mph 20.7 mph 0.02 in Rain Light Rain
11:13 AM 64.4 °F 62.6 °F 94% 29.93 in 4.0 mi South 12.7 mph - 0.03 in Rain Light Rain
11:20 AM 64.4 °F 62.6 °F 94% 29.93 in 4.0 mi South 16.1 mph 21.9 mph 0.04 in Rain Rain
11:40 AM 64.4 °F 62.6 °F 94% 29.93 in 5.0 mi South 15.0 mph - 0.05 in Rain Light Rain
11:52 AM 64.0 °F 62.1 °F 93% 29.92 in 5.0 mi SSW 11.5 mph 19.6 mph 0.05 in Rain Light Rain
12:00 PM 64.4 °F 62.6 °F 94% 29.92 in 2.5 mi SSW 12.7 mph - 0.00 in Rain Light Rain
12:10 PM 64.4 °F 62.6 °F 94% 29.92 in 4.0 mi SSW 10.4 mph 20.7 mph 0.01 in Rain Light Rain
12:52 PM 64.9 °F 62.1 °F 90% 29.90 in 5.0 mi SSW 16.1 mph 21.9 mph 0.01 in Rain Light Rain
1:04 PM 66.2 °F 62.6 °F 88% 29.91 in 7.0 mi SSW 9.2 mph 19.6 mph 0.00 in Rain Light Rain
1:22 PM 66.2 °F 62.6 °F 88% 29.91 in 7.0 mi SSW 16.1 mph 20.7 mph 0.00 in Rain Light Rain
1:52 PM 66.0 °F 63.0 °F 90% 29.90 in 2.5 mi SSW 9.2 mph 20.7 mph 0.01 in Rain Light Rain
1:58 PM 66.2 °F 62.6 °F 88% 29.91 in 4.0 mi SW 8.1 mph - 0.00 in Rain Light Rain
2:03 PM 64.4 °F 62.6 °F 94% 29.91 in 2.5 mi SW 9.2 mph - 0.01 in Rain Light Rain
2:10 PM 64.4 °F 62.6 °F 94% 29.91 in 2.0 mi SW 9.2 mph - 0.01 in Rain Light Rain
2:14 PM 66.2 °F 64.4 °F 94% 29.90 in 2.5 mi SW 10.4 mph - 0.01 in Rain Light Rain
2:17 PM 66.2 °F 64.4 °F 94% 29.90 in 3.0 mi SW 8.1 mph - 0.02 in Rain Light Rain
2:27 PM 66.2 °F 62.6 °F 88% 29.90 in 4.0 mi SW 8.1 mph - 0.02 in Rain Light Rain
2:47 PM 66.2 °F 64.4 °F 94% 29.90 in 4.0 mi SW 5.8 mph - 0.03 in Rain Light Rain
2:52 PM 66.9 °F 64.0 °F 90% 29.88 in 4.0 mi SW 6.9 mph - 0.03 in Rain Light Rain
3:04 PM 68.0 °F 64.4 °F 88% 29.89 in 10.0 mi SW 8.1 mph - 0.00 in Rain Light Rain
3:10 PM 66.2 °F 64.4 °F 94% 29.89 in 10.0 mi WSW 8.1 mph - 0.00 in   Overcast
3:23 PM 66.2 °F 64.4 °F 94% 29.89 in 10.0 mi SW 5.8 mph - 0.00 in   Overcast
3:52 PM 68.0 °F 64.0 °F 87% 29.88 in 10.0 mi SSW 10.4 mph - 0.00 in   Overcast
4:12 PM 68.0 °F 64.4 °F 88% 29.89 in 10.0 mi SW 6.9 mph - N/A   Overcast
4:52 PM 69.1 °F 64.0 °F 84% 29.88 in 10.0 mi SSW 9.2 mph - N/A   Mostly Cloudy
5:52 PM 69.1 °F 64.0 °F 84% 29.87 in 10.0 mi South 6.9 mph - N/A   Mostly Cloudy
6:52 PM 69.1 °F 64.9 °F 87% 29.87 in 10.0 mi South 4.6 mph - 0.00 in   Mostly Cloudy
7:52 PM 66.0 °F 64.0 °F 93% 29.88 in 10.0 mi South 3.5 mph - N/A   Clear
8:52 PM 64.9 °F 64.0 °F 97% 29.88 in 10.0 mi South 3.5 mph - N/A   Partly Cloudy
9:52 PM 64.9 °F 63.0 °F 93% 29.91 in 10.0 mi South 6.9 mph - N/A   Clear
10:52 PM 66.0 °F 64.0 °F 93% 29.91 in 10.0 mi WSW 4.6 mph - N/A   Partly Cloudy
11:00 PM 66.2 °F 64.4 °F 94% 29.94 in 10.0 mi NNW 11.5 mph - N/A   Mostly Cloudy
11:12 PM 64.4 °F 60.8 °F 88% 29.94 in 10.0 mi North 11.5 mph - N/A   Mostly Cloudy
11:28 PM 62.6 °F 60.8 °F 94% 29.94 in 10.0 mi North 8.1 mph - N/A   Overcast
11:52 PM 62.1 °F 61.0 °F 96% 29.93 in 6.0 mi Calm Calm - 0.02 in Rain Light Rain